TimeEDT,TemperatureF,Dew PointF,Humidity,Sea Level PressureIn,VisibilityMPH,Wind Direction,Wind SpeedMPH,Gust SpeedMPH,PrecipitationIn,Events,Conditions,WindDirDegrees,DateUTC
12:15 AM,71.1,70.3,98,30.18,10.0,Calm,Calm,-,N/A,,Clear,0,2013-08-22 04:15:00
12:35 AM,70.7,70.0,98,30.18,7.0,Calm,Calm,-,N/A,,Scattered Clouds,0,2013-08-22 04:35:00
12:55 AM,70.0,69.4,98,30.18,1.5,Calm,Calm,-,N/A,,Mostly Cloudy,0,2013-08-22 04:55:00
1:15 AM,69.8,69.3,98,30.18,0.2,Calm,Calm,-,N/A,Fog,Fog,0,2013-08-22 05:15:00
1:35 AM,70.0,69.8,99,30.19,0.8,Calm,Calm,-,N/A,,Overcast,0,2013-08-22 05:35:00
1:55 AM,70.7,70.2,98,30.18,0.2,SW,3.5,-,N/A,Fog,Fog,220,2013-08-22 05:55:00
2:15 AM,70.2,70.0,99,30.18,0.2,SW,4.6,-,N/A,Fog,Fog,230,2013-08-22 06:15:00
2:35 AM,70.7,70.3,99,30.17,0.8,Calm,Calm,-,N/A,,Overcast,0,2013-08-22 06:35:00
2:55 AM,70.9,70.7,99,30.18,1.5,SW,4.6,-,N/A,,Overcast,220,2013-08-22 06:55:00
3:15 AM,70.7,70.5,99,30.18,2.0,Calm,Calm,-,N/A,,Overcast,0,2013-08-22 07:15:00
3:35 AM,70.5,70.5,100,30.17,1.0,SW,3.5,-,N/A,,Overcast,220,2013-08-22 07:35:00
3:55 AM,70.3,70.3,100,30.17,0.5,Calm,Calm,-,N/A,Fog,Fog,0,2013-08-22 07:55:00
4:15 AM,70.2,70.2,100,30.17,2.0,West,3.5,-,N/A,,Overcast,260,2013-08-22 08:15:00
4:35 AM,70.2,70.2,100,30.17,3.0,Calm,Calm,-,N/A,,Overcast,0,2013-08-22 08:35:00
4:55 AM,70.2,70.2,100,30.16,1.8,Calm,Calm,-,N/A,,Overcast,0,2013-08-22 08:55:00
5:15 AM,70.0,70.0,100,30.16,1.2,Calm,Calm,-,N/A,,Overcast,0,2013-08-22 09:15:00
5:35 AM,70.0,70.0,100,30.16,1.0,WNW,3.5,-,N/A,,Overcast,290,2013-08-22 09:35:00
5:55 AM,69.8,69.8,100,30.16,3.0,Calm,Calm,-,N/A,,Overcast,0,2013-08-22 09:55:00
6:15 AM,69.8,69.8,100,30.16,3.0,West,4.6,-,N/A,,Overcast,280,2013-08-22 10:15:00
6:35 AM,69.6,69.6,100,30.17,4.0,WNW,3.5,-,N/A,,Overcast,300,2013-08-22 10:35:00
6:55 AM,69.1,69.1,100,30.17,4.0,West,3.5,-,N/A,,Overcast,270,2013-08-22 10:55:00
7:15 AM,68.9,68.9,100,30.17,1.8,Calm,Calm,-,N/A,,Overcast,0,2013-08-22 11:15:00
7:35 AM,68.9,68.9,100,30.18,2.0,Calm,Calm,-,N/A,,Overcast,0,2013-08-22 11:35:00
7:55 AM,68.9,68.9,100,30.18,3.0,Calm,Calm,-,N/A,,Overcast,0,2013-08-22 11:55:00
8:15 AM,69.1,69.1,100,30.19,7.0,SW,3.5,-,N/A,,Overcast,220,2013-08-22 12:15:00
8:35 AM,69.1,69.1,100,30.18,7.0,WSW,3.5,-,N/A,,Mostly Cloudy,240,2013-08-22 12:35:00
8:55 AM,69.8,69.8,100,30.18,10.0,Calm,Calm,-,N/A,,Mostly Cloudy,0,2013-08-22 12:55:00
9:15 AM,70.5,70.2,99,30.18,10.0,SSW,4.6,-,N/A,,Mostly Cloudy,210,2013-08-22 13:15:00
9:35 AM,71.2,71.1,99,30.18,10.0,SSW,3.5,-,N/A,,Overcast,210,2013-08-22 13:35:00
9:55 AM,71.6,71.1,98,30.19,10.0,Calm,Calm,-,N/A,,Mostly Cloudy,0,2013-08-22 13:55:00
10:15 AM,72.5,71.1,95,30.19,10.0,Calm,Calm,-,N/A,,Scattered Clouds,0,2013-08-22 14:15:00
10:35 AM,74.3,70.9,89,30.18,10.0,Calm,Calm,-,N/A,,Scattered Clouds,0,2013-08-22 14:35:00
10:55 AM,76.1,70.9,84,30.18,10.0,Calm,Calm,-,N/A,,Clear,0,2013-08-22 14:55:00
11:15 AM,77.4,70.2,78,30.18,10.0,Calm,Calm,-,N/A,,Clear,0,2013-08-22 15:15:00
11:35 AM,79.3,69.8,72,30.18,10.0,Calm,Calm,-,N/A,,Clear,0,2013-08-22 15:35:00
11:55 AM,79.9,68.4,68,30.17,10.0,Calm,Calm,-,N/A,,Clear,0,2013-08-22 15:55:00
12:15 PM,81.0,68.9,67,30.17,10.0,South,4.6,-,N/A,,Clear,170,2013-08-22 16:15:00
12:35 PM,81.7,67.3,61,30.16,10.0,Calm,Calm,-,N/A,,Clear,0,2013-08-22 16:35:00
12:55 PM,82.0,67.8,62,30.16,10.0,Calm,Calm,-,N/A,,Clear,0,2013-08-22 16:55:00
1:15 PM,82.8,68.5,62,30.15,10.0,Calm,Calm,-,N/A,,Clear,0,2013-08-22 17:15:00
1:35 PM,83.1,68.4,61,30.15,10.0,SW,3.5,-,N/A,,Clear,230,2013-08-22 17:35:00
1:55 PM,84.0,69.8,62,30.14,10.0,SSW,3.5,-,N/A,,Clear,200,2013-08-22 17:55:00
2:15 PM,84.2,69.1,60,30.13,10.0,WSW,3.5,-,N/A,,Clear,240,2013-08-22 18:15:00
2:35 PM,84.7,67.5,56,30.11,10.0,West,4.6,-,N/A,,Clear,280,2013-08-22 18:35:00
2:55 PM,85.1,66.9,54,30.10,10.0,Calm,Calm,-,N/A,,Clear,0,2013-08-22 18:55:00
3:15 PM,85.6,68.0,55,30.09,10.0,South,5.8,-,N/A,,Clear,190,2013-08-22 19:15:00
3:35 PM,85.6,67.8,55,30.09,10.0,South,4.6,-,N/A,,Scattered Clouds,180,2013-08-22 19:35:00
3:55 PM,86.0,66.6,52,30.08,10.0,Calm,Calm,-,N/A,,Clear,0,2013-08-22 19:55:00
4:15 PM,86.2,66.9,52,30.08,10.0,WSW,5.8,-,N/A,,Scattered Clouds,250,2013-08-22 20:15:00
4:35 PM,86.4,66.7,52,30.07,10.0,WSW,3.5,-,N/A,,Clear,250,2013-08-22 20:35:00
4:55 PM,86.0,66.2,51,30.06,10.0,SW,3.5,-,N/A,,Clear,220,2013-08-22 20:55:00
5:15 PM,86.0,67.1,53,30.06,10.0,WSW,3.5,-,N/A,,Clear,240,2013-08-22 21:15:00
5:35 PM,86.0,67.1,53,30.05,10.0,SW,3.5,-,N/A,,Clear,230,2013-08-22 21:35:00
5:55 PM,86.0,68.2,55,30.05,10.0,South,5.8,-,N/A,,Clear,190,2013-08-22 21:55:00
6:15 PM,84.4,69.4,61,30.06,10.0,South,4.6,-,N/A,,Clear,190,2013-08-22 22:15:00
6:35 PM,82.0,70.5,68,30.07,10.0,WSW,9.2,-,N/A,,Clear,240,2013-08-22 22:35:00
6:55 PM,81.1,70.2,69,30.06,10.0,WSW,10.4,-,N/A,,Clear,240,2013-08-22 22:55:00
7:15 PM,80.2,70.0,71,30.05,10.0,SSW,8.1,-,N/A,,Clear,200,2013-08-22 23:15:00
7:35 PM,79.3,70.3,74,30.06,10.0,SW,6.9,-,N/A,,Clear,220,2013-08-22 23:35:00
7:55 PM,77.9,69.8,76,30.06,10.0,WSW,8.1,-,N/A,,Clear,240,2013-08-22 23:55:00
8:15 PM,77.0,69.3,77,30.06,10.0,WSW,4.6,-,N/A,,Clear,240,2013-08-23 00:15:00
8:35 PM,76.1,69.4,80,30.07,10.0,SW,3.5,-,N/A,,Clear,220,2013-08-23 00:35:00
8:55 PM,75.2,69.6,83,30.07,10.0,WSW,4.6,-,N/A,,Clear,250,2013-08-23 00:55:00
9:15 PM,75.9,69.8,81,30.07,10.0,Calm,Calm,-,N/A,,Clear,0,2013-08-23 01:15:00
9:35 PM,74.1,69.3,85,30.08,10.0,Calm,Calm,-,N/A,,Clear,0,2013-08-23 01:35:00
9:55 PM,74.5,69.1,83,30.09,10.0,Calm,Calm,-,N/A,,Clear,0,2013-08-23 01:55:00
10:15 PM,73.6,68.2,83,30.09,10.0,Calm,Calm,-,N/A,,Clear,0,2013-08-23 02:15:00
10:35 PM,72.5,68.9,88,30.09,10.0,Calm,Calm,-,N/A,,Clear,0,2013-08-23 02:35:00
10:55 PM,71.1,68.9,93,30.09,10.0,Calm,Calm,-,N/A,,Clear,0,2013-08-23 02:55:00
11:15 PM,72.5,69.1,89,30.09,5.0,Calm,Calm,-,N/A,,Clear,0,2013-08-23 03:15:00
11:35 PM,70.3,68.4,93,30.08,10.0,Calm,Calm,-,N/A,,Clear,0,2013-08-23 03:35:00
11:55 PM,69.3,67.6,95,30.09,10.0,Calm,Calm,-,N/A,,Clear,0,2013-08-23 03:55:00